NOAA NWS Hourly Roundups by Site

Regional Weather Roundup for State College, PA

To Select Another Site Choose from List

Select Site:  

000
ASUS41 KCTP 151210
RWRCTP

REGIONAL WEATHER ROUNDUP
NATIONAL WEATHER SERVICE STATE COLLEGE PA
800 AM EDT MON APR 15 2024

Note: "fair" indicates few or no clouds below 12,000 feet with no
significant weather and/or obstructions to visibility.

* = STATION THAT DOES NOT REPORT PRECIPITATION /E.G. RAIN...SNOW...ETC/
    THUNDER OR FOG.

PAZ002>004-007>009-013>016-020>023-029>032-151300-
WESTERN PENNSYLVANIA

CITY           SKY/WX    TMP DP  RH WIND       PRES   REMARKS
ERIE           CLOUDY    47  44  90 CALM      29.93R
MEADVILLE      CLOUDY    50  44  80 N5        29.91R
FRANKLIN       PTSUNNY   47  50 100 N3        29.91R
NEW CASTLE     PTSUNNY   48  48 100 NE5       29.91R FOG
BEAVER COUNTY  MOSUNNY   59  51  74 N3        29.89R
BUTLER         CLOUDY    53  53 100 NE3       29.89R
PITTSBURGH INT PTSUNNY   60  54  80 N5        29.87R
PITTSBURGH       N/A     59  53  80 N3        29.87R
INDIANA*       NOT AVBL
LATROBE        PTSUNNY   57  57 100 CALM      29.88R
CONNELLSVILLE  MOSUNNY   58  56  90 SW3       29.88R
WASHINGTON CO* MOSUNNY   59  54  83 MISG      29.89R
$$

PAZ004>006-010>012-017>019-024>028-033>037-041-042-045-046-049>053-151300-
CENTRAL PENNSYLVANIA

CITY           SKY/WX    TMP DP  RH WIND       PRES   REMARKS
BRADFORD       MOSUNNY   50  44  80 W3        29.89R
ST MARYS       PTSUNNY   50  46  87 CALM      29.91R
DUBOIS         SUNNY     52  49  89 CALM      29.88R
CLEARFIELD     FOG       51  50  96 CALM      29.88R VSB<1/4
JOHNSTOWN      CLOUDY    56  51  84 SW6       29.88R
SOMERSET       PTSUNNY   54  50  87 SW6       29.90R
ALTOONA        CLOUDY    57  54  89 SW5       29.88R
STATE COLLEGE  MOSUNNY   55  55 100 CALM      29.86R
REEDSVILLE     FOG       52  52 100 CALM      29.86R VSB 1/2
WELLSBORO      SUNNY     50  48  93 CALM      29.85R
WILLIAMSPORT   CLOUDY    52  51  97 CALM      29.84R FOG
SELINSGROVE    FOG       53  53 100 CALM      29.85R VSB 1/4
FT INDIANTOWN  PTSUNNY   58  56  92 CALM      29.82S
CAPITAL CITY   CLOUDY    61  56  83 CALM      29.84R
HARRISBURG     PTSUNNY   57  55  93 SE3       29.84R
YORK           CLOUDY    59  56  89 CALM      29.86R
$$

PAZ038>040-043-044-047-048-054-055-060>062-067>071-151300-
EASTERN PENNSYLVANIA

CITY           SKY/WX    TMP DP  RH WIND       PRES   REMARKS
TOWANDA        NOT AVBL
SCRANTON       SUNNY     57  53  86 CALM      29.83R
MOUNT POCONO   MOSUNNY   53  51  93 W7        29.84R
HAZLETON         N/A     57  54  88 CALM      29.88R
LEHIGHTON      SUNNY     52  52 100 CALM      29.85R
ALLENTOWN      SUNNY     58  55  90 SW5       29.83R
QN CITY/ALNTWN SUNNY     61  55  82 SW5       29.85R
QUAKERTOWN*    SUNNY     64  57  77 VRB6      29.84R
PERKASIE*      MOSUNNY   63  57  82 NW8       29.84R
DOYLESTOWN     MOSUNNY   63  55  75 W5        29.82R
READING        MOSUNNY   61  56  83 VRB3      29.84R
LANCASTER      CLOUDY    61  57  87 W6        29.85R
COATESVILLE    MOSUNNY   63  59  88 NW10      29.87R
WEST CHESTER   PTSUNNY   64  54  68 W7        29.85R
POTTSTOWN      CLOUDY    62  55  77 W5        29.86R
BLUE BELL      CLOUDY    62  55  77 W3        29.84R
NORTH PHILA    PTSUNNY   64  54  69 W8        29.84R
PHILADELPHIA   PTSUNNY   64  56  75 SW3       29.83R
$$


 

View Past Reports for State College, PA.

Products Courtesy of NOAA-NWS
NWS Information Parsing Script by Ken True at Saratoga Weather - Script by SE Lincoln Weather.